Location: ????????
(37.6846°N, 24.0673°E)
Time: 14:58:58
(UTC+00:00)

Cosmos 1975 Rocket - Pass Details

Date: 14 July 2020
Orbit: 604 x 633 km, 82.5° (Epoch: 03 August)

Event Time Altitude Azimuth Distance (km) Brightness Sun altitude
Rises 01:57:44 0° 354° (N) 2,907 7.0 -13.1°
Reaches altitude 10° 01:59:58 10° 357° (N) 2,001 6.2 -12.8°
Maximum altitude 02:04:24 75° 82° (E) 653 3.3 -12.1°
Drops below altitude 10° 02:08:50 10° 168° (SSE) 2,001 5.4 -11.5°
Sets 02:11:04 0° 170° (S) 2,906 6.2 -11.1°
